Tracking 28052 objects as of 22-Sep-2023
HD Live streaming from Space Station
objects crossing your sky now

ARIANE 42L+3 R/B

Track ARIANE 42L+3 R/B now!


NORAD ID: 23637
Int'l Code: 1995-040B
Perigee: 634.0 km
Apogee: 36,765.2 km
Inclination: 4.6 °
Period: 658.4 minutes
Semi major axis: 25070 km
RCS: 21.0891 m2 (large)
Launch date: August 3, 1995
Source: France (FR)
Launch site: FRENCH GUIANA (FRGUI)

Note: This is a ROCKET BODY
Your satellite tracking list
Your tracking list is empty




NASA's NSSDC Master Catalog

Two Line Element Set (TLE):
1 23637U 95040B   23264.39534722 -.00000222  00000-0 -39981-3 0  9992
2 23637   4.5993 341.8905 7205877  10.5757  50.4594  2.18703355224698
Source of the keplerian elements: AFSPC